Location: STAR School
(35.3054°N, 111.2976°W)
Time: 10:24:15
(UTC-07:00)

Explorer 7 - Visible Passes

Search period start: 19 May 2019 00:00
Search period end: 29 May 2019 00:00
Orbit: 485 x 680 km, 50.3° (Epoch: 19 May)

Date Brightness Start Highest point End Pass type
(mag) Time Alt. Az. Time Alt. Az. Time Alt. Az.
19 May 10.2 01:16:33 10° NNW 01:17:56 11° N 01:19:18 10° NNE visible
19 May 9.5 02:56:39 10° NNW 02:59:54 20° NNE 03:03:00 10° ENE visible
19 May 6.7 04:36:45 10° NW 04:40:53 78° SW 04:44:46 10° SE visible
19 May 7.6 20:14:31 10° SSW 20:19:03 39° SE 20:23:28 10° ENE visible
19 May 8.6 21:55:11 10° W 21:59:41 38° NNW 22:04:01 10° NE visible
19 May 10.1 23:38:50 10° NW 23:41:18 14° NNW 23:43:42 10° NNE visible
20 May 10.2 01:21:39 10° NNW 01:23:29 12° N 01:25:16 10° NNE visible
20 May 8.9 03:01:30 10° NNW 03:05:14 28° NNE 03:08:47 10° E visible
20 May 7.1 04:41:59 10° WNW 04:45:54 42° SW 04:49:35 10° SSE visible
20 May 7.2 20:19:12 10° SW 20:24:03 66° SE 20:28:45 10° NE visible
20 May 9.2 22:00:52 10° W 22:04:57 27° NNW 22:08:55 10° NNE visible
20 May 10.2 23:44:52 10° NNW 23:46:49 12° N 23:48:43 10° NNE visible
21 May 10.0 01:26:34 10° NNW 01:29:00 14° NNE 01:31:21 10° NE visible
21 May 8.0 03:06:24 10° NW 03:10:30 43° NNE 03:14:22 10° ESE visible
21 May 7.9 04:47:31 10° WNW 04:50:48 23° SW 04:53:57 10° S visible
21 May 7.4 20:24:13 10° SW 20:29:07 78° NW 20:33:52 10° NE visible
21 May 9.7 22:06:43 10° WNW 22:10:18 20° NNW 22:13:48 10° NNE visible
21 May 10.3 23:50:40 10° NNW 23:52:21 12° N 23:54:00 10° NNE visible
22 May 9.7 01:31:24 10° NNW 01:34:27 18° NNE 01:37:23 10° ENE visible
22 May 7.0 03:11:23 10° NW 03:15:41 73° NE 03:19:40 10° SE visible
22 May 8.2 20:29:30 10° WSW 20:34:15 50° NW 20:38:53 10° NE visible
22 May 10.0 22:12:43 10° WNW 22:15:44 16° NNW 22:18:41 10° NNE visible
22 May 10.2 23:56:05 10° NNW 23:57:54 12° N 23:59:42 10° NNE visible
23 May 9.2 01:36:15 10° NNW 01:39:51 24° NNE 01:43:15 10° E visible
23 May 6.7 03:16:30 10° NW 03:20:45 64° SW 03:24:42 10° SE visible
23 May 9.0 20:35:02 10° W 20:39:29 34° NNW 20:43:49 10° NE visible
23 May 10.1 22:18:44 10° NW 22:21:13 14° NNW 22:23:39 10° NNE visible
24 May 10.0 00:01:10 10° NNW 00:03:26 13° N 00:05:40 10° NE visible
24 May 8.8 01:41:07 10° NW 01:43:55 28° N 01:43:55 28° N visible
24 May 9.5 20:40:46 10° W 20:44:47 25° NNW 20:48:42 10° NNE visible
24 May 10.1 22:24:40 10° NNW 22:26:45 13° N 22:28:47 10° NNE visible
25 May 9.8 00:06:05 10° NNW 00:08:56 16° NNE 00:10:44 13° NE visible
25 May 9.4 01:46:03 10° NW 01:46:58 15° NW 01:46:58 15° NW visible
25 May 9.9 20:46:40 10° WNW 20:50:10 19° NNW 20:53:37 10° NNE visible
25 May 10.1 22:30:20 10° NNW 22:32:18 12° N 22:34:14 10° NNE visible
26 May 9.4 00:10:58 10° NNW 00:14:23 20° NNE 00:14:28 20° NNE visible
26 May 9.9 20:52:39 10° NW 20:55:37 16° NNW 20:58:32 10° NNE visible
26 May 10.0 22:35:39 10° NNW 22:37:51 13° N 22:40:00 10° NE visible
27 May 9.2 00:15:49 10° NNW 00:18:30 24° N 00:18:30 24° N visible
27 May 10.0 20:58:38 10° NW 21:01:08 14° N 21:03:35 10° NNE visible
27 May 9.8 22:40:41 10° NNW 22:43:22 15° NNE 22:45:58 10° NE visible
28 May 9.3 00:20:43 10° NW 00:22:41 22° NNW 00:22:41 22° NNW visible
28 May 10.0 21:04:28 10° NNW 21:06:40 13° N 21:08:50 10° NNE visible
28 May 9.4 22:45:38 10° NNW 22:48:51 18° NNE 22:50:40 15° NE visible
